{"data":{"norad_id":53568,"intl_designator":"2022-101AT","name":"STARLINK-4583","alt_names":[],"object_type":"PAYLOAD","status":"ACTIVE","operator":null,"country":"US","launch_date":"2022-08-19","launch_site_code":"AFETR","launch_vehicle":null,"mission":null,"orbit_class":"UNKNOWN","rcs_meters":null,"size_class":null,"mass_kg":null,"dimensions":null,"purposes":["comms"],"wikipedia_slug":null,"has_3d_model":false,"image_url":null,"decayed_at":null,"tle_current":{"epoch":"2026-05-25T04:11:23.140032Z","epoch_age_seconds":63488,"freshness":"FRESH","line1":"1 53568U 22101AT  26145.17457338  .00000949  00000+0  77688-4 0  9990","line2":"2 53568  53.2141  70.6352 0001467  89.6654 270.4506 15.08840993208689","mean_motion":15.08840993,"eccentricity":0.0001467,"inclination_deg":53.2141,"raan_deg":70.6352,"arg_perigee_deg":89.6654,"mean_anomaly_deg":270.4506,"bstar":7.7688e-5,"rev_number":20868,"period_min":95.437491868303,"perigee_km":538.72550115423,"apogee_km":540.75520636982,"semimajor_km":6917.877353762,"source":"CELESTRAK","updated_at":"2026-05-25T13:38:17.469883Z"}}}